Torreon, Mexico

4:49 AM CST on February 23, 2017 (GMT -0600)
Torreon International

Weather History for MMTC - May, 2014

Change the Weather History Date:

Sunday, May 11, 2014

  Actual Average Record
Temperature  
Mean Temperature 90 °F -  
Max Temperature 108 °F 93 °F 108 °F (2014)
Min Temperature 71 °F 68 °F 60 °F (1997)
Cooling Degree Days 24    
Growing Degree Days 40 (Base 50)    
Moisture  
Dew Point 35 °F    
Average Humidity 20    
Maximum Humidity 56    
Minimum Humidity 4    
Precipitation  
Precipitation 0.00 in - - ()
Sea Level Pressure  
Sea Level Pressure 29.61 in    
Wind  
Wind Speed 3 mph ()    
Max Wind Speed 9 mph    
Max Gust Speed -    
Visibility 11.0 miles    
Events      
Averages and records for this station are not official NWS values.
T = Trace of Precipitation, MM = Missing Value Source: Averaged Metar Reports

Daily Weather History Graph

Daily Weather History Graph

Search for Another Location

Airport or City:

Trip Planner

Search our weather history database for the weather conditions in past years. The results will help you decide how hot, cold, wet, or windy it might be!

Date:

Astronomy

May. 11, 2014 Rise Set
Actual Time 7:10 AM CDT 8:29 PM CDT
Civil Twilight 6:46 AM CDT 8:54 PM CDT
Nautical Twilight 6:16 AM CDT 9:24 PM CDT
Astronomical Twilight 5:46 AM CDT 9:54 PM CDT
Moon 10:08 AM EST (3/11) 4:56 AM CDT (5/11)
Length of Visible Light 14h 08m
Length of Day
13h 19m
Waxing Gibbous, 89% of the Moon is Illuminated
May 11
Waxing Gibbous
May 14
Full
May 21
Last Quarter
May 28
New
Jun 5
First Quarter

Hourly Weather History & Observations

Time (CDT) Temp. Dew Point Humidity Pressure Visibility Wind Dir Wind Speed Gust Speed Precip Events Conditions
12:46 AM 82 °F 62 °F 40% 29.44 in 6 mi SE 2.2 mph - -  
5:44 AM 71.6 °F 41.0 °F 33% 29.85 in 8.0 mi Calm Calm - N/A   Clear
6:47 AM 71.6 °F 42.8 °F 35% 29.54 in 8.0 mi Calm Calm - N/A   Clear
6:50 AM 73 °F 60 °F 56% 29.58 in 6 mi SSW 2.2 mph - -  
7:41 AM 71.6 °F 44.6 °F 38% 28.89 in 10.0 mi Calm Calm - N/A   Clear
8:42 AM 77.0 °F 46.4 °F 34% 29.91 in 10.0 mi Calm Calm - N/A   Clear
9:43 AM 80.6 °F 46.4 °F 30% 29.58 in 10.0 mi NNE 8.1 mph - N/A   Clear
9:46 AM 85 °F 61 °F 34% 29.65 in 19 mi East 4.5 mph - -   Scattered Clouds
10:42 AM 84.2 °F 35.6 °F 18% 29.92 in 10.0 mi NNE 6.9 mph - N/A   Clear
11:42 AM 86.0 °F 41.0 °F 20% 29.91 in 10.0 mi Calm Calm - N/A   Clear
12:41 PM 91.4 °F 28.4 °F 10% 29.54 in 12.0 mi Calm Calm - N/A   Clear
12:45 PM 97 °F 60 °F 20% 29.59 in 19 mi ESE 4.5 mph - -  
1:44 PM 93.2 °F 23.0 °F 8% 29.84 in 12.0 mi NNE 5.8 mph - N/A   Clear
2:41 PM 95.0 °F 21.2 °F 7% 29.80 in 10.0 mi ESE 6.9 mph - N/A   Clear
3:45 PM 104 °F 61 °F 16% 29.43 in 19 mi NW 4.5 mph - -  
4:43 PM 98.6 °F 14.0 °F 5% 29.72 in 10.0 mi East 6.9 mph - N/A   Clear
5:40 PM 98.6 °F 6.8 °F 4% 29.69 in 10.0 mi West 9.2 mph - N/A   Clear
6:41 PM 98.6 °F 1.4 °F 4% 29.36 in 10.0 mi Calm Calm - N/A   Clear
6:45 PM 104 °F 63 °F 17% 29.32 in 19 mi WSW 4.5 mph - -  
7:40 PM 98.6 °F -0.4 °F 4% 29.68 in 10.0 mi WSW 6.9 mph - N/A   Clear
8:44 PM 91.4 °F 1.4 °F 4% 29.69 in 10.0 mi NNW 6.9 mph - N/A   Clear
9:49 PM 86.0 °F 19.4 °F 9% 29.37 in 10.0 mi NNE 4.6 mph - N/A   Clear
9:50 PM 87 °F 62 °F 33% 29.32 in 6 mi Calm Calm - -  
10:41 PM 80.6 °F 21.2 °F 11% 29.74 in 10.0 mi Calm Calm - N/A   Clear
11:40 PM 84.2 °F 17.6 °F 8% 29.78 in 10.0 mi South 4.6 mph - N/A   Clear